Вернуться в каталог

QIANFAN-174

АктивенСвязьPO
NORAD 69391·PAYLOAD·🇨🇳 China

Запущен Jun 4, 2026 с Taiyuan Satellite Launch Center

Loading…

Ближайшие Пролёты (ближайшие 24 часа)

TLE

СвежийSource: Space-Track

Эпоха: Sep 14, 2026, 20:52 UTC

1 69391U 26124K   26257.86970105  .00000130  00000-0  18315-3 0  9996
2 69391  89.0044 352.5143 0002186 110.0344 250.1043 13.51029533 14178

Отслеживайте QIANFAN-174 в реальном времени с AllMySat

Download on the App Store